RRR4226 LMML-LXGB

Flight info

Callsign RRR4226
Flight time N/A
Altitude 36000
Route GZO L30 NEVNA DCT OMENI UL874 DIMAO UZ888 BABOR UA31 BNA UZ444 DAHRA UA411 MOS UM744 CARBO DCT GOLFO DCT OBAKA M744 MGA M985 PIMOS
Aircraft A400/H-SDE3FGHIRWY/L4T

Departure

Time N/A
Airport Malta International Airport (LMML)

Arrival

Time 2026-04-28 12:34
Airport Gibraltar Airport (LXGB)
Time Latitude Longitude Altitude Speed Heading
2026-04-28 10:41 36.43495 7.48728 35986 ft 341 kts 271°
2026-04-28 10:42 36.43584 7.45789 35996 ft 341 kts 270°
2026-04-28 10:42 36.43762 7.39907 36004 ft 342 kts 270°
2026-04-28 10:43 36.43935 7.34000 35997 ft 342 kts 270°
2026-04-28 10:43 36.44103 7.28088 36008 ft 343 kts 270°
2026-04-28 10:44 36.44272 7.22169 36007 ft 343 kts 270°
2026-04-28 10:44 36.44437 7.16277 36012 ft 344 kts 270°
2026-04-28 10:45 36.44599 7.10344 36018 ft 344 kts 270°
2026-04-28 10:45 36.44759 7.04400 36024 ft 344 kts 270°
2026-04-28 10:46 36.44917 6.98463 36026 ft 344 kts 270°
2026-04-28 10:46 36.45070 6.92518 36027 ft 344 kts 270°
2026-04-28 10:47 36.45221 6.86570 36034 ft 344 kts 270°
2026-04-28 10:47 36.45370 6.80618 36037 ft 345 kts 269°
2026-04-28 10:48 36.45515 6.74654 36034 ft 345 kts 269°
2026-04-28 10:48 36.45657 6.68701 36035 ft 345 kts 269°
2026-04-28 10:49 36.45797 6.62743 36035 ft 345 kts 269°
2026-04-28 10:49 36.45935 6.56776 36036 ft 345 kts 269°
2026-04-28 10:50 36.46068 6.50824 36038 ft 345 kts 269°
2026-04-28 10:50 36.46200 6.44855 36036 ft 345 kts 269°
2026-04-28 10:51 36.46327 6.38909 36036 ft 345 kts 268°
2026-04-28 10:51 36.46450 6.32947 36028 ft 345 kts 268°
2026-04-28 10:52 36.46571 6.27040 36025 ft 344 kts 268°
2026-04-28 10:52 36.46689 6.21099 36020 ft 344 kts 268°
2026-04-28 10:53 36.46805 6.15145 36015 ft 344 kts 268°
2026-04-28 10:53 36.46918 6.09207 36013 ft 344 kts 268°
2026-04-28 10:54 36.47028 6.03263 36005 ft 344 kts 268°
2026-04-28 10:54 36.47135 5.97320 36008 ft 345 kts 268°
2026-04-28 10:55 36.47238 5.91359 36008 ft 345 kts 268°
2026-04-28 10:55 36.47339 5.85388 36006 ft 346 kts 268°
2026-04-28 10:56 36.47436 5.79407 35994 ft 346 kts 268°
2026-04-28 10:56 36.47530 5.73421 35998 ft 346 kts 268°
2026-04-28 10:57 36.47622 5.67426 36008 ft 346 kts 268°
2026-04-28 10:57 36.47712 5.61434 36005 ft 347 kts 268°
2026-04-28 10:58 36.47798 5.55474 36009 ft 348 kts 268°
2026-04-28 10:58 36.47881 5.49475 36014 ft 348 kts 268°
2026-04-28 10:59 36.47959 5.43459 36007 ft 348 kts 268°
2026-04-28 10:59 36.48036 5.37438 36002 ft 349 kts 267°
2026-04-28 11:00 36.48112 5.31393 36007 ft 350 kts 267°
2026-04-28 11:00 36.48182 5.25331 35995 ft 351 kts 267°
2026-04-28 11:01 36.48249 5.19273 35987 ft 350 kts 267°
2026-04-28 11:01 36.48315 5.13213 35976 ft 351 kts 267°
2026-04-28 11:02 36.48378 5.07137 35968 ft 352 kts 267°
2026-04-28 11:02 36.48468 5.01041 35970 ft 354 kts 270°
2026-04-28 11:03 36.49062 4.94993 35971 ft 356 kts 274°
2026-04-28 11:03 36.49799 4.88906 35963 ft 357 kts 274°
2026-04-28 11:04 36.50565 4.82811 35963 ft 357 kts 274°
2026-04-28 11:04 36.51322 4.76713 35968 ft 357 kts 274°
2026-04-28 11:05 36.51946 4.71635 35974 ft 358 kts 274°
2026-04-28 11:05 36.52691 4.65520 35971 ft 357 kts 274°
2026-04-28 11:06 36.53433 4.59410 35970 ft 357 kts 273°
2026-04-28 11:06 36.54171 4.53303 35972 ft 357 kts 273°
2026-04-28 11:07 36.54906 4.47184 35970 ft 357 kts 273°
2026-04-28 11:07 36.55639 4.41062 35971 ft 357 kts 273°
2026-04-28 11:08 36.56367 4.34959 35972 ft 357 kts 273°
2026-04-28 11:08 36.57092 4.28855 35970 ft 357 kts 273°
2026-04-28 11:09 36.57814 4.22742 35972 ft 357 kts 273°
2026-04-28 11:09 36.58531 4.16642 35967 ft 357 kts 273°
2026-04-28 11:10 36.59242 4.10573 35952 ft 356 kts 273°
2026-04-28 11:10 36.59955 4.04469 35953 ft 356 kts 273°
2026-04-28 11:11 36.60662 3.98366 35955 ft 356 kts 273°
2026-04-28 11:11 36.61368 3.92234 35950 ft 360 kts 273°
2026-04-28 11:12 36.62077 3.86061 35945 ft 360 kts 273°
2026-04-28 11:12 36.62783 3.79884 35940 ft 361 kts 272°
2026-04-28 11:13 36.63490 3.73685 35940 ft 362 kts 273°
2026-04-28 11:13 36.64195 3.67477 35943 ft 362 kts 273°
2026-04-28 11:14 36.64833 3.61258 35941 ft 360 kts 269°
2026-04-28 11:14 36.64593 3.55130 35941 ft 356 kts 259°
2026-04-28 11:15 36.63884 3.49028 35946 ft 356 kts 257°
2026-04-28 11:15 36.63081 3.42941 35944 ft 357 kts 257°
2026-04-28 11:16 36.62271 3.36841 35942 ft 357 kts 257°
2026-04-28 11:16 36.61470 3.30729 35945 ft 358 kts 258°
2026-04-28 11:17 36.60671 3.24603 35943 ft 359 kts 258°
2026-04-28 11:17 36.59865 3.18471 35943 ft 360 kts 257°
2026-04-28 11:18 36.59054 3.12322 35943 ft 360 kts 257°
2026-04-28 11:18 36.58239 3.06167 35944 ft 361 kts 257°
2026-04-28 11:19 36.57421 2.99999 35943 ft 361 kts 257°
2026-04-28 11:19 36.56600 2.93817 35943 ft 362 kts 257°
2026-04-28 11:20 36.55774 2.87632 35943 ft 363 kts 257°
2026-04-28 11:20 36.54949 2.81479 35942 ft 363 kts 257°
2026-04-28 11:21 36.54115 2.75281 35943 ft 363 kts 257°
2026-04-28 11:21 36.53279 2.69083 35944 ft 364 kts 257°
2026-04-28 11:22 36.52437 2.62871 35943 ft 364 kts 257°
2026-04-28 11:22 36.51591 2.56661 35943 ft 364 kts 257°
2026-04-28 11:23 36.50743 2.50455 35944 ft 364 kts 257°
2026-04-28 11:23 36.49890 2.44242 35943 ft 364 kts 257°
2026-04-28 11:24 36.49040 2.38077 35944 ft 364 kts 257°
2026-04-28 11:24 36.48181 2.31874 35944 ft 364 kts 257°
2026-04-28 11:25 36.47319 2.25677 35945 ft 364 kts 257°
2026-04-28 11:25 36.46455 2.19475 35942 ft 364 kts 257°
2026-04-28 11:26 36.45591 2.13278 35943 ft 364 kts 257°
2026-04-28 11:26 36.44721 2.07096 35944 ft 363 kts 257°
2026-04-28 11:27 36.43844 2.00914 35947 ft 364 kts 257°
2026-04-28 11:27 36.42966 1.94722 35939 ft 364 kts 257°
2026-04-28 11:28 36.42084 1.88515 35942 ft 365 kts 257°
2026-04-28 11:28 36.41198 1.82307 35945 ft 365 kts 257°
2026-04-28 11:29 36.40313 1.76139 35945 ft 366 kts 257°
2026-04-28 11:29 36.39419 1.69927 35943 ft 365 kts 257°
2026-04-28 11:30 36.38520 1.63707 35943 ft 366 kts 257°
2026-04-28 11:30 36.37162 1.54355 35946 ft 368 kts 257°
2026-04-28 11:31 36.35867 1.48253 35945 ft 365 kts 248°
2026-04-28 11:31 36.34009 1.42372 35944 ft 366 kts 246°
2026-04-28 11:32 36.32041 1.36536 35944 ft 367 kts 245°
2026-04-28 11:32 36.30058 1.30698 35946 ft 368 kts 245°
2026-04-28 11:33 36.28074 1.24840 35935 ft 369 kts 246°
2026-04-28 11:33 36.26091 1.18971 35933 ft 370 kts 246°
2026-04-28 11:34 36.24096 1.13071 35934 ft 371 kts 245°
2026-04-28 11:34 36.22097 1.07172 35934 ft 372 kts 245°
2026-04-28 11:35 36.20086 1.01251 35941 ft 373 kts 245°
2026-04-28 11:35 36.18082 0.95363 35944 ft 374 kts 245°
2026-04-28 11:36 36.16055 0.89419 35945 ft 376 kts 245°
2026-04-28 11:36 36.14017 0.83454 35944 ft 376 kts 245°
2026-04-28 11:37 36.11974 0.77485 35943 ft 377 kts 245°
2026-04-28 11:37 36.09926 0.71506 35943 ft 378 kts 245°
2026-04-28 11:38 36.07870 0.65529 35951 ft 379 kts 245°
2026-04-28 11:38 36.05800 0.59521 35951 ft 379 kts 245°
2026-04-28 11:39 36.03730 0.53520 35945 ft 380 kts 245°
2026-04-28 11:39 36.01653 0.47515 35943 ft 380 kts 245°
2026-04-28 11:40 35.99569 0.41498 35944 ft 381 kts 245°
2026-04-28 11:40 35.97502 0.35540 35943 ft 379 kts 245°
2026-04-28 11:41 35.95420 0.29553 35944 ft 380 kts 245°
2026-04-28 11:41 35.93331 0.23558 35943 ft 380 kts 245°
2026-04-28 11:42 35.91467 0.17455 35943 ft 382 kts 254°
2026-04-28 11:42 35.90901 0.10916 35931 ft 387 kts 271°
2026-04-28 11:43 35.91869 0.04357 35915 ft 391 kts 281°
2026-04-28 11:43 35.93307 -0.02127 35916 ft 392 kts 283°
2026-04-28 11:44 35.94813 -0.08633 35917 ft 397 kts 283°
2026-04-28 11:44 35.96293 -0.15164 35916 ft 398 kts 283°
2026-04-28 11:45 35.97761 -0.21765 35915 ft 399 kts 283°
2026-04-28 11:45 35.99219 -0.28374 35915 ft 399 kts 283°
2026-04-28 11:46 36.00674 -0.34993 35916 ft 399 kts 283°
2026-04-28 11:46 36.02133 -0.41644 35916 ft 404 kts 284°
2026-04-28 11:47 36.03603 -0.48355 35915 ft 405 kts 284°
2026-04-28 11:47 36.05073 -0.55088 35916 ft 405 kts 284°
2026-04-28 11:48 36.06538 -0.61816 35915 ft 405 kts 284°
2026-04-28 11:48 36.07999 -0.68547 35915 ft 406 kts 284°
2026-04-28 11:49 36.09457 -0.75285 35916 ft 406 kts 283°
2026-04-28 11:49 36.10910 -0.82033 35915 ft 406 kts 283°
2026-04-28 11:50 36.12362 -0.88781 35916 ft 406 kts 283°
2026-04-28 11:50 36.13810 -0.95531 35916 ft 406 kts 283°
2026-04-28 11:51 36.15245 -1.02242 35924 ft 406 kts 283°
2026-04-28 11:51 36.16685 -1.09005 35924 ft 406 kts 283°
2026-04-28 11:52 36.18122 -1.15767 35925 ft 406 kts 283°
2026-04-28 11:52 36.19555 -1.22527 35933 ft 406 kts 283°
2026-04-28 11:53 36.20987 -1.29296 35934 ft 407 kts 283°
2026-04-28 11:53 36.22415 -1.36079 35933 ft 407 kts 283°
2026-04-28 11:54 36.23598 -1.41714 35934 ft 407 kts 283°
2026-04-28 11:54 36.25020 -1.48498 35941 ft 407 kts 283°
2026-04-28 11:55 36.26438 -1.55287 35944 ft 407 kts 283°
2026-04-28 11:55 36.27843 -1.62034 35953 ft 406 kts 283°
2026-04-28 11:56 36.29246 -1.68800 35952 ft 407 kts 283°
2026-04-28 11:56 36.30654 -1.75608 35953 ft 407 kts 283°
2026-04-28 11:57 36.32051 -1.82391 35953 ft 406 kts 283°
2026-04-28 11:57 36.33448 -1.89187 35953 ft 407 kts 283°
2026-04-28 11:58 36.34845 -1.95987 35961 ft 407 kts 283°
2026-04-28 11:58 36.36237 -2.02794 35962 ft 407 kts 283°
2026-04-28 11:59 36.37624 -2.09603 35962 ft 407 kts 283°
2026-04-28 11:59 36.39006 -2.16410 35962 ft 407 kts 283°
2026-04-28 12:00 36.40383 -2.23208 35962 ft 406 kts 283°
2026-04-28 12:00 36.41744 -2.29963 35962 ft 406 kts 283°
2026-04-28 12:01 36.43114 -2.36769 35962 ft 406 kts 283°
2026-04-28 12:01 36.44480 -2.43564 35962 ft 405 kts 283°
2026-04-28 12:02 36.45839 -2.50358 35962 ft 405 kts 283°
2026-04-28 12:02 36.47193 -2.57150 35962 ft 405 kts 283°
2026-04-28 12:03 36.48542 -2.63944 35962 ft 405 kts 283°
2026-04-28 12:03 36.49887 -2.70736 35961 ft 404 kts 283°
2026-04-28 12:04 36.51225 -2.77515 35962 ft 404 kts 283°
2026-04-28 12:04 36.52559 -2.84300 35962 ft 404 kts 283°
2026-04-28 12:05 36.53886 -2.91067 35961 ft 403 kts 283°
2026-04-28 12:05 36.55214 -2.97857 35962 ft 403 kts 283°
2026-04-28 12:06 36.56527 -3.04590 35962 ft 403 kts 283°
2026-04-28 12:06 36.57841 -3.11360 35962 ft 403 kts 283°
2026-04-28 12:07 36.59152 -3.18132 35961 ft 402 kts 283°
2026-04-28 12:07 36.60457 -3.24897 35962 ft 402 kts 283°
2026-04-28 12:08 36.61761 -3.31674 35962 ft 402 kts 283°
2026-04-28 12:08 36.63059 -3.38438 35962 ft 402 kts 283°
2026-04-28 12:09 36.64350 -3.45200 35962 ft 401 kts 283°
2026-04-28 12:09 36.65635 -3.51968 35962 ft 402 kts 283°
2026-04-28 12:10 36.66919 -3.58755 35961 ft 402 kts 283°
2026-04-28 12:10 36.68188 -3.65481 35958 ft 401 kts 283°
2026-04-28 12:11 36.69463 -3.72258 35952 ft 401 kts 283°
2026-04-28 12:11 36.70715 -3.78935 35832 ft 385 kts 283°
2026-04-28 12:12 36.71313 -3.82126 35659 ft 373 kts 283°
2026-04-28 12:12 36.71892 -3.85225 35474 ft 361 kts 283°
2026-04-28 12:12 36.72453 -3.88228 35305 ft 350 kts 283°
2026-04-28 12:12 36.72996 -3.91143 35114 ft 340 kts 283°
2026-04-28 12:13 36.73531 -3.94019 34508 ft 345 kts 283°
2026-04-28 12:13 36.74082 -3.96982 33648 ft 356 kts 283°
2026-04-28 12:13 36.74650 -4.00039 32753 ft 368 kts 283°
2026-04-28 12:13 36.75234 -4.03192 31824 ft 378 kts 283°
2026-04-28 12:14 36.75831 -4.06425 30864 ft 388 kts 283°
2026-04-28 12:14 36.76445 -4.09744 29829 ft 397 kts 283°
2026-04-28 12:14 36.77070 -4.13132 28780 ft 405 kts 282°
2026-04-28 12:14 36.77694 -4.16528 27913 ft 407 kts 282°
2026-04-28 12:15 36.78334 -4.20006 27170 ft 405 kts 282°
2026-04-28 12:15 36.78952 -4.23371 26502 ft 401 kts 283°
2026-04-28 12:15 36.79568 -4.26734 25840 ft 396 kts 283°
2026-04-28 12:15 36.80112 -4.30087 25165 ft 392 kts 276°
2026-04-28 12:16 36.80090 -4.33460 24523 ft 387 kts 261°
2026-04-28 12:16 36.79346 -4.36646 23876 ft 381 kts 244°
2026-04-28 12:16 36.77879 -4.39355 23220 ft 376 kts 226°
2026-04-28 12:16 36.75913 -4.41458 22834 ft 370 kts 217°
2026-04-28 12:17 36.73805 -4.43310 22581 ft 370 kts 213°
2026-04-28 12:17 36.71636 -4.45032 22334 ft 369 kts 211°
2026-04-28 12:17 36.69455 -4.46691 22082 ft 367 kts 211°
2026-04-28 12:17 36.67269 -4.48344 21817 ft 366 kts 211°
2026-04-28 12:18 36.65105 -4.49995 21410 ft 363 kts 211°
2026-04-28 12:18 36.62969 -4.51649 20932 ft 360 kts 211°
2026-04-28 12:18 36.60858 -4.53301 20448 ft 356 kts 211°
2026-04-28 12:18 36.58774 -4.54943 19971 ft 352 kts 212°
2026-04-28 12:19 36.56718 -4.56571 19499 ft 348 kts 212°
2026-04-28 12:19 36.54711 -4.58161 19036 ft 344 kts 212°
2026-04-28 12:19 36.52700 -4.59755 18577 ft 341 kts 212°
2026-04-28 12:19 36.50706 -4.61331 18110 ft 337 kts 212°
2026-04-28 12:20 36.48742 -4.62883 17643 ft 333 kts 212°
2026-04-28 12:20 36.46788 -4.64425 17198 ft 331 kts 212°
2026-04-28 12:20 36.44847 -4.65955 16750 ft 329 kts 211°
2026-04-28 12:20 36.42922 -4.67471 16306 ft 327 kts 212°
2026-04-28 12:21 36.41002 -4.68983 15851 ft 326 kts 212°
2026-04-28 12:21 36.39089 -4.70489 15396 ft 324 kts 212°
2026-04-28 12:21 36.37192 -4.71981 14954 ft 323 kts 212°
2026-04-28 12:21 36.35298 -4.73470 14507 ft 321 kts 212°
2026-04-28 12:22 36.33413 -4.74949 14058 ft 320 kts 211°
2026-04-28 12:22 36.31534 -4.76423 13615 ft 318 kts 212°
2026-04-28 12:22 36.29669 -4.77886 13170 ft 317 kts 212°
2026-04-28 12:22 36.27809 -4.79346 12724 ft 316 kts 212°
2026-04-28 12:23 36.25982 -4.80778 12285 ft 315 kts 212°
2026-04-28 12:23 36.24132 -4.82225 11845 ft 312 kts 212°
2026-04-28 12:23 36.22298 -4.83661 11396 ft 311 kts 211°
2026-04-28 12:23 36.20461 -4.85099 10950 ft 311 kts 211°
2026-04-28 12:24 36.18628 -4.86534 10502 ft 311 kts 211°
2026-04-28 12:24 36.16795 -4.87967 10061 ft 310 kts 211°
2026-04-28 12:24 36.15015 -4.89345 9930 ft 294 kts 210°
2026-04-28 12:24 36.13257 -4.90646 9609 ft 294 kts 209°
2026-04-28 12:25 36.11515 -4.91894 9198 ft 293 kts 208°
2026-04-28 12:25 36.09741 -4.93143 8802 ft 293 kts 207°
2026-04-28 12:25 36.07971 -4.94384 8418 ft 292 kts 207°
2026-04-28 12:25 36.06207 -4.95621 8027 ft 290 kts 207°
2026-04-28 12:26 36.04455 -4.96852 7638 ft 288 kts 207°
2026-04-28 12:26 36.02727 -4.98087 7249 ft 287 kts 210°
2026-04-28 12:26 36.01230 -4.99708 6860 ft 287 kts 229°
2026-04-28 12:26 36.00302 -5.01840 6450 ft 288 kts 252°
2026-04-28 12:27 35.99907 -5.04260 6049 ft 287 kts 262°
2026-04-28 12:27 35.99775 -5.06711 5652 ft 286 kts 268°
2026-04-28 12:27 35.99785 -5.09163 5258 ft 284 kts 271°
2026-04-28 12:27 35.99848 -5.11603 4863 ft 284 kts 271°
2026-04-28 12:28 35.99917 -5.14030 4465 ft 282 kts 271°
2026-04-28 12:28 35.99969 -5.16446 4074 ft 281 kts 271°
2026-04-28 12:28 36.00000 -5.18848 3676 ft 280 kts 270°
2026-04-28 12:28 36.00016 -5.21256 3273 ft 279 kts 270°
2026-04-28 12:29 36.00019 -5.26007 2485 ft 274 kts 270°
2026-04-28 12:29 36.00149 -5.28335 2099 ft 272 kts 277°
2026-04-28 12:29 36.00540 -5.30597 1718 ft 269 kts 286°
2026-04-28 12:30 36.01220 -5.32716 1331 ft 264 kts 296°
2026-04-28 12:30 36.02190 -5.34618 948 ft 260 kts 308°
2026-04-28 12:30 36.03422 -5.36244 581 ft 259 kts 321°
2026-04-28 12:30 36.04824 -5.37594 525 ft 251 kts 326°
2026-04-28 12:31 36.06187 -5.38785 532 ft 229 kts 330°
2026-04-28 12:31 36.07576 -5.39324 544 ft 195 kts
2026-04-28 12:31 36.08818 -5.39239 580 ft 163 kts
2026-04-28 12:31 36.09859 -5.39285 625 ft 139 kts
2026-04-28 12:32 36.10773 -5.39329 472 ft 126 kts
2026-04-28 12:32 36.11620 -5.39361 317 ft 122 kts
2026-04-28 12:32 36.12497 -5.39400 462 ft 129 kts
2026-04-28 12:32 36.13412 -5.39401 645 ft 132 kts
2026-04-28 12:33 36.14310 -5.39199 668 ft 129 kts 38°
2026-04-28 12:33 36.14787 -5.38369 285 ft 119 kts 63°
2026-04-28 12:33 36.15026 -5.37300 245 ft 137 kts 84°
2026-04-28 12:33 36.15072 -5.36168 84 ft 125 kts 86°
2026-04-28 12:34 36.15107 -5.35266 29 ft 56 kts 87°
2026-04-28 12:34 36.15118 -5.34927 29 ft 30 kts 87°
2026-04-28 12:34 36.15090 -5.34797 28 ft 10 kts 148°
2026-04-28 12:34 36.15040 -5.34780 28 ft 8 kts 169°
2026-04-28 12:35 36.15001 -5.34760 28 ft 2 kts 114°
2026-04-28 12:35 36.15002 -5.34750 28 ft 0 kts 96°